Location: Unspecified
(55.7024°N, 37.6611°E)
Time: 22:23:48
(UTC+03:00)

Vanguard 1 - All Passes

Search period start: 17 June 2025 00:00
Search period end: 27 June 2025 00:00
Orbit: 649 x 3822 km, 34.3° (Epoch: 16 June)

Date Brightness Start Highest point End Pass type
(mag) Time Alt. Az. Time Alt. Az. Time Alt. Az.
17 Jun - 08:19:40 10° SSE 08:26:44 15° SE 08:35:14 10° ESE daylight
17 Jun - 10:32:38 10° SSW 10:46:11 32° SSE 11:04:14 10° ESE daylight
17 Jun - 12:51:22 10° WSW 13:08:12 39° S 13:28:12 10° ESE daylight
17 Jun - 15:13:24 10° WSW 15:30:45 31° SSW 15:48:16 10° SSE daylight
17 Jun - 17:41:29 10° WSW 17:51:21 15° SW 18:00:43 10° SSW daylight
18 Jun - 08:36:10 10° S 08:44:59 18° SE 08:56:18 10° E daylight
18 Jun - 10:51:03 10° SW 11:04:57 34° SSE 11:23:39 10° ESE daylight
18 Jun - 13:10:24 10° WSW 13:27:11 38° S 13:47:00 10° SE daylight
18 Jun - 15:33:03 10° W 15:49:28 28° SSW 16:06:03 10° SSE daylight
18 Jun - 18:06:43 10° WSW 18:09:33 10° SW 18:12:20 10° SW daylight
19 Jun - 08:53:29 10° S 09:03:21 22° SE 09:16:37 10° E daylight
19 Jun - 11:09:39 10° SW 11:23:47 36° SSE 11:42:56 10° ESE daylight
19 Jun - 13:29:32 10° WSW 13:46:09 37° SSW 14:05:37 10° SE daylight
19 Jun - 15:53:00 10° W 16:08:07 24° SW 16:23:23 10° S daylight
20 Jun - 09:11:18 10° SSW 09:21:51 25° SE 09:36:33 10° E daylight
20 Jun - 11:28:24 10° SW 11:42:42 37° S 12:02:04 10° ESE daylight
20 Jun - 13:48:48 10° WSW 14:05:06 34° SSW 14:24:01 10° SE daylight
20 Jun - 16:13:24 10° W 16:26:39 20° SW 16:40:05 10° S daylight
21 Jun - 07:19:18 10° SE 07:21:52 11° SE 07:24:38 10° ESE daylight
21 Jun - 09:29:26 10° SSW 09:40:27 28° SSE 09:56:13 10° ESE daylight
21 Jun - 11:47:17 10° WSW 12:01:40 37° S 12:21:05 10° ESE daylight
21 Jun - 14:08:12 10° WSW 14:23:59 31° SSW 14:42:08 10° SSE daylight
21 Jun - 16:34:39 10° WSW 16:45:06 15° SW 16:55:42 10° SSW daylight
22 Jun - 07:34:16 10° SSE 07:40:05 14° SE 07:47:18 10° ESE daylight
22 Jun - 09:47:49 10° SSW 09:59:10 31° SSE 10:15:42 10° ESE daylight
22 Jun - 12:06:16 10° WSW 12:20:39 36° S 12:39:55 10° SE daylight
22 Jun - 14:27:48 10° WSW 14:42:49 28° SSW 14:59:55 10° SSE daylight
22 Jun - 16:58:25 10° WSW 17:03:28 11° SW 17:08:33 10° SW daylight
23 Jun - 07:51:13 10° S 07:58:26 18° SE 08:08:02 10° ESE daylight
23 Jun - 10:06:23 10° SW 10:17:58 33° SSE 10:35:01 10° ESE daylight
23 Jun - 12:25:22 10° WSW 12:39:38 35° S 12:58:33 10° SE daylight
23 Jun - 14:47:41 10° WSW 15:01:35 24° SW 15:17:13 10° S daylight
24 Jun - 08:08:52 10° S 08:16:54 21° SE 08:28:09 10° ESE daylight
24 Jun - 10:25:06 10° SW 10:36:51 34° S 10:54:13 10° ESE daylight
24 Jun - 12:44:36 10° WSW 12:58:37 32° SSW 13:16:58 10° SE daylight
24 Jun - 15:08:01 10° WSW 15:20:16 19° SW 15:33:50 10° S daylight
25 Jun - 08:26:54 10° SSW 08:35:28 24° SSE 08:47:56 10° ESE daylight
25 Jun - 10:43:57 10° SW 10:55:47 34° S 11:13:15 10° ESE daylight
25 Jun - 13:03:58 10° WSW 13:17:34 29° SSW 13:35:05 10° SSE daylight
25 Jun - 15:29:13 10° WSW 15:38:53 15° SW 15:49:22 10° SSW daylight
26 Jun - 08:45:14 10° SSW 08:54:08 26° SSE 09:07:28 10° ESE daylight
26 Jun - 11:02:55 10° WSW 11:14:45 33° S 11:32:07 10° SE daylight
26 Jun - 13:23:33 10° WSW 13:36:30 26° SSW 13:52:49 10° SSE daylight
26 Jun - 15:53:07 10° WSW 15:57:26 11° SW 16:01:54 10° SW daylight
